Location: Altleiningen
(49.5078°N, 8.0741°E)
Time: 05:15:32
(UTC+00:00)

Cosmos 1943 Rocket - Pass Details

Date: 03 March 2021
Orbit: 811 x 844 km, 71.0° (Epoch: 11 April)

Event Time Altitude Azimuth Distance (km) Brightness Sun altitude
Rises 18:58:34 0° 332° (NNW) 3,415 5.9 -17.7°
Reaches altitude 10° 19:02:39 10° 1° (N) 2,478 4.8 -18.4°
Maximum altitude 19:05:06 13° 27° (NNE) 2,283 4.3 -18.8°
Enters shadow 19:06:42 12° 44° (NE) 2,365 4.2 -19.0°
